Powrót do katalogu

STARLINK-35561

AktywnyŁącznośćVLEO
NORAD 66105·PAYLOAD·🇺🇸 United States

Wystrzelony Oct 19, 2025 z Vandenberg Space Force Base

Loading…

Następne Przeloty (najbliższe 24 godziny)

TLE

ŚwieżeSource: CelesTrak SupGP

Epoka: Sep 14, 2026, 15:07 UTC

1 66105C 25236V   26257.63034722  .00033970  00000+0  10040-2 0  2570
2 66105  53.1572 303.3581 0001368  73.6306 272.8571 15.34363079    13

Śledź STARLINK-35561 w czasie rzeczywistym z AllMySat

Download on the App Store